Regional Weather Roundup
Issued by NWS Newport/Morehead, NC

Current Version | Previous Version | Graphics & Text | Print | Product List | Glossary On
Versions: 1 2 3 4 5 6 7 8 9 10 11 12 13 14 15 16 17 18 19 20 21 22 23 24 25 26 27 28 29 30 31 32 33 34 35 36 37 38 39 40 41 42 43 44 45 46 47 48 49 50
000 ASUS42 KMHX 272310 RWRMHX WEATHER ROUNDUP FOR EASTERN NORTH CAROLINA NATIONAL WEATHER SERVICE NEWPORT/MOREHEAD CITY NC 600 PM EST TUE JAN 27 2015 NOTE: "FAIR" INDICATES FEW OR NO CLOUDS BELOW 12,000 FEET WITH NO SIGNIFICANT WEATHER AND/OR OBSTRUCTIONS TO VISIBILITY NCZ015>017-031-032-045>047-102-103-280000- NORTH COAST CITY SKY/WX TMP DP RH WIND PRES REMARKS EDENTON CLOUDY 35 30 83 NW8 29.85R ELIZABETH CITY CLOUDY 35 28 75 W8 29.83R KITTY HAWK CLOUDY 35 30 82 NW9 29.80R MANTEO CLOUDY 36 28 75 NW8G17 29.82R $$ NCZ045>047-081-094-103-104-280000- CENTRAL COAST CITY SKY/WX TMP DP RH WIND PRES REMARKS FRISCO CLOUDY 35 31 85 NW12G22 29.81R SWANQUARTER NOT AVBL $$ NCZ095-097-098-100-101-280000- SOUTHERN COAST CITY SKY/WX TMP DP RH WIND PRES REMARKS BEAUFORT CLOUDY 38 29 70 NW17 29.85R CEDAR ISLAND NOT AVBL JACKSONVILLE CLOUDY 39 28 64 NW9 29.86R PINEY ISLAND N/A N/A N/A N/A MISG 29.84R WILMINGTON CLEAR 38 27 64 NW6 29.87R $$ NCZ011>013-027>030-043-044-078>080-089-090>093-098-280000- COASTAL PLAIN CITY SKY/WX TMP DP RH WIND PRES REMARKS AHOSKIE CLOUDY 34 28 77 CALM 29.86R CLINTON CLEAR 39 26 59 CALM 29.88R ELIZABETHTOWN CLEAR 41 23 47 CALM 29.87R GOLDSBORO CLEAR 36 35 94 CALM 29.85R GREENVILLE PTCLDY 36 28 75 CALM 29.88R HAVELOCK CLOUDY 38 27 64 NW9 29.86R KENANSVILLE CLEAR 38 26 61 W3 29.87R KINSTON CLEAR 34 28 80 CALM 29.87R NEW BERN CLOUDY 39 28 64 NW8 29.86R RICHLANDS MOCLDY 37 27 65 CALM 29.87R ROCKY MOUNT CLEAR 33 28 81 CALM 29.85R WASHINGTON CLOUDY 35 30 80 N5 29.86R WHITEVILLE CLEAR 42 20 40 CALM 29.86R $$ AMZ130-135-150-152-154-156-158-170-250-252-270-ANZ085-086-088-633-658-670-280000- MARINE OBSERVATIONS STATION/POSITION TIME TEMP WIND PRES WAVE SWELL AIR SEA DIR/SP/G HT/PER HT/PER (UTC) (F) (DEG/KT/KT) (MB) (FT/S) (FT/S) CHESAPEAKE LIGHT 2200 36 340/ 23/ 24 1008.7 64 E VA BEACH 2300 39 52 330/ 23/ 29 1007.0 15/14 13/14 DUCK 2300 36 43 300/ 9/ 14 1008.4 2 E DUCK 2300 44 N/A 8/13 7/13 10 NE DUCK 2300 45 N/A 10/13 8/13 OREGON INLET 2300 36 44 310/ 13/ 16 1009.1 13E OREGON INLT 2300 46 N/A 11/14 8/14 HATTERAS CG 2300 36 48 320/ 19/ 23 1009.6 DIAMOND BUOY 2300 39 69 330/ 19/ 27 1008.5 10/14 8/14 17 S OCRACOKE NOT AVBL CAPE LOOKOUT 2200 38 320/ 15/ 19 1009.4 BEAUFORT LAB 2300 38 49 320/ 7/ 12 1009.3 27 SE WRIGHTSVLE NOT AVBL 5 SE WRIGHTSVLE 2200 43 53 310/ 12/ 14 1010.4 225 S CAPE HAT 2205 58 71 290/ 25/ 31 1006.1 12/ 9 7/ 9 41 SE CHARLESTON 2300 51 67 300/ 19/ 25 1011.7 4/ 4 $$

USA.gov is the U.S. government's official web portal to all federal, state and local government web resources and services.